{"data":{"norad_id":66232,"epoch":"2026-05-25T03:59:33.630144Z","epoch_age_seconds":56623,"freshness":"FRESH","line1":"1 66232U 25244AC  26145.16636146  .00046883  00000+0  15891-2 0  9991","line2":"2 66232  53.1602 235.0190 0001248 134.2050 225.9053 15.30117610 33364","mean_motion":15.3011761,"eccentricity":0.0001248,"inclination_deg":53.1602,"raan_deg":235.019,"arg_perigee_deg":134.205,"mean_anomaly_deg":225.9053,"bstar":0.0015891,"rev_number":3336,"period_min":94.110412859048,"perigee_km":474.60575310612,"apogee_km":476.31641118743,"semimajor_km":6853.5980821468,"source":"CELESTRAK","updated_at":"2026-05-25T13:38:21.132633Z"}}